TimeEST,TemperatureF,Dew PointF,Humidity,Sea Level PressureIn,VisibilityMPH,Wind Direction,Wind SpeedMPH,Gust SpeedMPH,PrecipitationIn,Events,Conditions,WindDirDegrees,DateUTC
12:00 AM,68.0,62.6,83,30.08,6.2,Calm,Calm,-,N/A,,Scattered Clouds,0,2013-01-02 05:00:00
1:00 AM,64,59,78,30.07,9,Calm,Calm,,,,Partly Cloudy,,2013-01-02 06:00:00
1:00 AM,64.4,59.0,83,30.06,6.2,Calm,Calm,-,N/A,,Partly Cloudy,0,2013-01-02 06:00:00
3:00 AM,66.2,60.8,83,30.05,-9999.0,North,-9999.0,-,N/A,,Partly Cloudy,0,2013-01-02 08:00:00
4:00 AM,62,,,30.05,9,Calm,Calm,,,,Scattered Clouds,,2013-01-02 09:00:00
4:00 AM,62.6,60.8,94,30.05,6.2,Calm,Calm,-,N/A,,Partly Cloudy,0,2013-01-02 09:00:00
5:00 AM,62.6,59.0,88,30.05,6.2,Calm,Calm,-,N/A,,Partly Cloudy,0,2013-01-02 10:00:00
6:00 AM,62.6,60.8,94,30.06,6.2,Calm,Calm,-,N/A,,Partly Cloudy,0,2013-01-02 11:00:00
7:00 AM,62,60,89,30.08,8,Calm,Calm,,,Fog,Patches of Fog,,2013-01-02 12:00:00
7:00 AM,62.6,59.0,88,30.08,6.2,Calm,Calm,-,N/A,,Partly Cloudy,0,2013-01-02 12:00:00
8:00 AM,66.2,64.4,94,30.11,6.2,Calm,Calm,-,N/A,Fog,Shallow Fog,0,2013-01-02 13:00:00
9:00 AM,71.6,66.2,83,30.11,6.2,ESE,3.5,-,N/A,,Partly Cloudy,120,2013-01-02 14:00:00
10:00 AM,78,65,57,30.12,8,East,4.6,,,,Scattered Clouds,90,2013-01-02 15:00:00
10:00 AM,77.0,66.2,69,30.12,6.2,East,4.6,-,N/A,,Partly Cloudy,90,2013-01-02 15:00:00
11:00 AM,78.8,64.4,61,30.11,6.2,ESE,4.6,-,N/A,,Partly Cloudy,120,2013-01-02 16:00:00
12:00 PM,78.8,64.4,61,30.09,6.2,SSE,6.9,-,N/A,,Partly Cloudy,150,2013-01-02 17:00:00
1:00 PM,82,66,50,,8,SSE,4.6,,,,Scattered Clouds,150,2013-01-02 18:00:00
1:00 PM,82.4,66.2,58,30.06,6.2,SSE,4.6,-,N/A,,Partly Cloudy,150,2013-01-02 18:00:00
2:00 PM,78.8,64.4,61,30.04,6.2,South,4.6,-,N/A,,Partly Cloudy,180,2013-01-02 19:00:00
3:00 PM,78.8,64.4,61,30.02,6.2,SSE,4.6,-,N/A,,Scattered Clouds,160,2013-01-02 20:00:00
4:00 PM,80,65,52,30.04,8,SE,4.6,,,,Clear,130,2013-01-02 21:00:00
4:00 PM,78.8,66.2,65,30.04,-9999.0,SE,4.6,-,N/A,,Clear,130,2013-01-02 21:00:00
5:00 PM,75.2,66.2,73,30.05,-9999.0,SSE,4.6,-,N/A,,Clear,160,2013-01-02 22:00:00
6:00 PM,73.4,66.2,78,30.06,6.2,East,3.5,-,N/A,,Partly Cloudy,90,2013-01-02 23:00:00
7:00 PM,72,68,84,30.07,7,East,3.5,,,,Scattered Clouds,90,2013-01-03 00:00:00
7:00 PM,71.6,68.0,88,30.07,6.2,East,3.5,-,N/A,,Partly Cloudy,90,2013-01-03 00:00:00
8:00 PM,71.6,66.2,83,30.09,6.2,Calm,Calm,-,N/A,,Partly Cloudy,0,2013-01-03 01:00:00
9:00 PM,69.8,64.4,83,30.10,6.2,Calm,Calm,-,N/A,,Partly Cloudy,0,2013-01-03 02:00:00
10:00 PM,69,67,92,30.11,8,Calm,Calm,,,,Scattered Clouds,,2013-01-03 03:00:00
10:00 PM,68.0,68.0,100,30.11,6.2,Calm,Calm,-,N/A,,Partly Cloudy,0,2013-01-03 03:00:00
11:00 PM,69.8,66.2,88,30.09,6.2,Calm,Calm,-,N/A,,Partly Cloudy,0,2013-01-03 04:00:00